Weather History for Rogers City, MI

Change the Weather History Date:

Friday, January 10, 2014

  Actual Average (KAPN) Record (KAPN)
Temperature  
Mean Temperature 23 °F 19 °F  
Max Temperature 33 °F 27 °F 52 °F (1950)
Min Temperature 13 °F 12 °F -21 °F (1982)
Degree Days  
Heating Degree Days 42 46  
Month to date heating degree days 449  
Since 1 July heating degree days 3510  
Moisture  
Dew Point 22 °F    
Average Humidity 89    
Maximum Humidity 99    
Minimum Humidity 76    
Precipitation  
Precipitation 0.00 in 0.06 in 0.63 in (1924)
Month to date precipitation 0.58  
Year to date precipitation 0.58  
Snow  
Snow 0.00 in 0.70 in 5.80 in (1929)
Month to date snowfall 6.9  
Since 1 July snowfall 34.2  
Snow Depth -    
Sea Level Pressure  
Sea Level Pressure 29.97 in    
Wind  
Wind Speed 8 mph (SSE)    
Max Wind Speed 15 mph    
Max Gust Speed 18 mph    
Visibility 7 miles    
Events Rain    
T = Trace of Precipitation, MM = Missing Value Source: NWS Daily Summary

Daily Weather History Graph

Daily Weather History Graph

Search for Another Location

Airport:

Trip Planner

Search our weather history database for the weather conditions in past years. The results will help you decide how hot, cold, wet, or windy it might be!

Date:

Astronomy

Jan. 10, 2014 Rise Set
Actual Time 8:13 AM EST 5:12 PM EST
Civil Twilight 7:40 AM EST 5:45 PM EST
Nautical Twilight 7:03 AM EST 6:22 PM EST
Astronomical Twilight 6:27 AM EST 6:58 PM EST
Moon 1:19 PM EST (1/10) 3:15 AM EST (1/10)
Length of Visible Light 10h 05m
Length of Day
8h 58m
Waxing Gibbous, 75% of the Moon is Illuminated
Jan 10
Waxing Gibbous
Jan 15
Full
Jan 24
Last Quarter
Jan 30
New
Feb 6
First Quarter

Hourly Weather History & Observations

Time (EST) Temp. Windchill Dew Point Humidity Pressure Visibility Wind Dir Wind Speed Gust Speed Precip Events Conditions
12:14 AM 13.1 °F 4.0 °F 6.8 °F 76% 30.23 in 10.0 mi South 5.8 mph - N/A   Overcast
12:31 AM 13.1 °F 1.8 °F 7.0 °F 77% 30.22 in 10.0 mi SSE 8.1 mph - N/A   Overcast
3:02 AM 15.3 °F 3.5 °F 10.4 °F 81% 30.17 in 10.0 mi South 9.2 mph - N/A   Overcast
3:14 AM 15.6 °F 4.9 °F 10.9 °F 82% 30.16 in 10.0 mi South 8.1 mph - N/A   Overcast
3:35 AM 16.0 °F 5.3 °F 11.3 °F 82% 30.16 in 10.0 mi South 8.1 mph - N/A   Overcast
3:55 AM 16.5 °F 6.9 °F 12.0 °F 82% 30.15 in 10.0 mi South 6.9 mph - N/A   Overcast
4:15 AM 16.5 °F 6.9 °F 12.2 °F 83% 30.14 in 10.0 mi South 6.9 mph - N/A   Overcast
4:35 AM 16.7 °F 9.6 °F 12.6 °F 84% 30.13 in 10.0 mi South 4.6 mph - N/A   Overcast
4:55 AM 17.2 °F 10.2 °F 13.1 °F 84% 30.13 in 10.0 mi South 4.6 mph - N/A   Overcast
5:15 AM 17.6 °F 10.7 °F 13.6 °F 84% 30.12 in 10.0 mi South 4.6 mph - N/A   Overcast
5:35 AM 18.0 °F 12.7 °F 14.2 °F 85% 30.11 in 10.0 mi South 3.5 mph - N/A   Overcast
5:54 AM 18.5 °F 11.7 °F 14.9 °F 86% 30.11 in 10.0 mi SSW 4.6 mph - N/A   Overcast
6:15 AM 18.9 °F 10.8 °F 15.6 °F 87% 30.11 in 10.0 mi South 5.8 mph - N/A   Overcast
6:35 AM 19.2 °F 11.3 °F 16.0 °F 87% 30.10 in 10.0 mi South 5.8 mph - N/A   Overcast
6:55 AM 19.6 °F 9.7 °F 16.5 °F 88% 30.10 in 10.0 mi South 8.1 mph - N/A   Overcast
7:15 AM 20.1 °F 11.3 °F 17.1 °F 88% 30.10 in 10.0 mi South 6.9 mph - N/A   Overcast
7:35 AM 20.1 °F 10.3 °F 17.2 °F 89% 30.10 in 10.0 mi South 8.1 mph - N/A   Overcast
7:55 AM 20.3 °F 11.5 °F 17.6 °F 89% 30.09 in 10.0 mi South 6.9 mph - N/A   Overcast
8:15 AM 20.3 °F 10.6 °F 17.6 °F 89% 30.09 in 10.0 mi South 8.1 mph - N/A   Overcast
8:35 AM 20.7 °F 9.5 °F 18.0 °F 89% 30.10 in 7.0 mi South 10.4 mph - N/A   Overcast
8:55 AM 20.8 °F 11.2 °F 18.1 °F 89% 30.10 in 7.0 mi South 8.1 mph - N/A   Overcast
9:15 AM 21.0 °F 11.4 °F 18.3 °F 89% 30.09 in 7.0 mi South 8.1 mph - N/A   Overcast
9:35 AM 21.6 °F 13.0 °F 18.9 °F 89% 30.10 in 7.0 mi South 6.9 mph - N/A   Overcast
9:55 AM 21.9 °F 12.5 °F 19.2 °F 89% 30.09 in 7.0 mi South 8.1 mph - N/A   Overcast
10:15 AM 22.5 °F 15.1 °F 19.6 °F 89% 30.09 in 7.0 mi South 5.8 mph - N/A   Overcast
10:35 AM 23.0 °F 13.9 °F 20.1 °F 89% 30.08 in 7.0 mi South 8.1 mph - N/A   Overcast
10:55 AM 23.5 °F 14.5 °F 20.7 °F 89% 30.07 in 5.0 mi South 8.1 mph - N/A   Overcast
11:14 AM 23.9 °F 14.2 °F 21.0 °F 89% 30.07 in 5.0 mi South 9.2 mph - N/A   Overcast
11:35 AM 24.6 °F 14.4 °F 21.7 °F 89% 30.06 in 5.0 mi South 10.4 mph - N/A   Overcast
11:55 AM 25.3 °F 14.7 °F 22.5 °F 89% 30.05 in 5.0 mi South 11.5 mph 16.1 mph N/A   Overcast
12:15 PM 26.1 °F 16.8 °F 23.0 °F 88% 30.04 in 5.0 mi South 9.2 mph - N/A   Overcast
12:35 PM 26.2 °F 17.1 °F 23.5 °F 90% 30.03 in 5.0 mi South 9.2 mph - N/A   Overcast
12:55 PM 26.6 °F 18.2 °F 23.9 °F 90% 30.02 in 4.0 mi South 8.1 mph - N/A   Overcast
1:15 PM 27.1 °F 18.9 °F 24.4 °F 90% 30.00 in 5.0 mi South 8.1 mph - N/A   Overcast
1:35 PM 27.5 °F 18.0 °F 24.8 °F 90% 29.99 in 4.0 mi South 10.4 mph - N/A   Overcast
1:55 PM 27.9 °F 21.5 °F 24.8 °F 88% 29.97 in 5.0 mi South 5.8 mph - N/A   Overcast
2:15 PM 28.4 °F 19.7 °F 25.0 °F 87% 29.97 in 5.0 mi South 9.2 mph - N/A   Overcast
2:35 PM 28.4 °F 22.2 °F 25.2 °F 88% 29.95 in 5.0 mi SE 5.8 mph - N/A   Overcast
2:55 PM 28.4 °F 20.4 °F 25.2 °F 88% 29.95 in 7.0 mi SE 8.1 mph - N/A   Overcast
3:15 PM 29.1 °F 23.0 °F 25.5 °F 86% 29.94 in 7.0 mi SE 5.8 mph - N/A   Overcast
3:35 PM 29.7 °F 22.8 °F 25.7 °F 85% 29.93 in 7.0 mi SE 6.9 mph - N/A   Overcast
3:55 PM 29.8 °F 22.2 °F 25.7 °F 85% 29.92 in 7.0 mi SE 8.1 mph - N/A   Mostly Cloudy
4:15 PM 29.3 °F 21.5 °F 25.7 °F 86% 29.93 in 7.0 mi SSE 8.1 mph - N/A   Scattered Clouds
4:35 PM 30.0 °F 21.7 °F 26.2 °F 86% 29.93 in 7.0 mi South 9.2 mph - N/A   Mostly Cloudy
4:55 PM 30.2 °F 23.4 °F 26.6 °F 86% 29.91 in 10.0 mi South 6.9 mph - N/A   Overcast
5:14 PM 30.2 °F 21.3 °F 27.0 °F 88% 29.91 in 10.0 mi South 10.4 mph - N/A   Overcast
5:35 PM 30.2 °F 21.3 °F 27.1 °F 88% 29.90 in 10.0 mi South 10.4 mph - N/A   Overcast
5:55 PM 30.2 °F 21.9 °F 27.5 °F 90% 29.89 in 10.0 mi South 9.2 mph - N/A   Overcast
6:15 PM 30.2 °F 22.6 °F 27.5 °F 90% 29.87 in 7.0 mi SSE 8.1 mph - N/A   Overcast
6:35 PM 30.2 °F 23.4 °F 27.5 °F 90% 29.86 in 7.0 mi SSE 6.9 mph - N/A   Overcast
6:54 PM 30.2 °F 23.4 °F 27.5 °F 90% 29.85 in 7.0 mi SE 6.9 mph - N/A   Overcast
7:15 PM 30.6 °F 23.8 °F 28.4 °F 92% 29.84 in 7.0 mi SE 6.9 mph - N/A   Overcast
7:35 PM 30.9 °F 23.5 °F 29.3 °F 94% 29.82 in 5.0 mi SE 8.1 mph - N/A   Overcast
7:55 PM 30.9 °F 22.8 °F 29.7 °F 95% 29.82 in 5.0 mi SE 9.2 mph - N/A   Overcast
8:15 PM 31.1 °F 23.1 °F 30.0 °F 96% 29.81 in 4.0 mi SE 9.2 mph - N/A   Overcast
8:34 PM 31.1 °F 23.7 °F 30.4 °F 97% 29.78 in 2.0 mi SE 8.1 mph - N/A Rain Light Freezing Rain
8:55 PM 31.6 °F 23.1 °F 31.1 °F 98% 29.76 in 3.0 mi SE 10.4 mph - N/A   Overcast
9:15 PM 32.0 °F 23.6 °F 31.6 °F 99% 29.74 in 3.0 mi SE 10.4 mph - N/A Rain Rain
9:35 PM 32.2 °F 23.8 °F 32.0 °F 99% 29.72 in 2.0 mi SSE 10.4 mph - N/A   Overcast
9:55 PM 32.7 °F 22.5 °F 32.0 °F 97% 29.70 in 4.0 mi SE 15.0 mph 18.4 mph N/A Rain Light Rain
10:14 PM 32.9 °F 24.1 °F 32.0 °F 96% 29.68 in 5.0 mi SSE 11.5 mph 17.3 mph N/A Rain Rain
10:35 PM 32.9 °F 23.7 °F 32.2 °F 97% 29.66 in 5.0 mi SSE 12.7 mph 17.3 mph N/A Rain Light Rain
10:55 PM 32.9 °F 24.1 °F 32.2 °F 97% 29.64 in 5.0 mi SE 11.5 mph 18.4 mph N/A Rain Light Rain
11:15 PM 33.1 °F 23.4 °F 32.5 °F 98% 29.62 in 5.0 mi SE 13.8 mph - N/A Rain Light Rain
11:35 PM 33.3 °F 24.1 °F 32.9 °F 99% 29.60 in 5.0 mi SSE 12.7 mph - N/A Rain Light Rain
11:54 PM 33.4 °F 24.8 °F 32.9 °F 98% 29.58 in 4.0 mi SSE 11.5 mph 17.3 mph N/A Rain Rain